GW3817 Weather Reports


time (UTC)temp
C
wind
direction
speed
KPH
gust
KPH
rain 1hr
cm
rain 24hr
cm
rain mn
cm
humidity
%
barometer
mb
20260507015521 22 3 6.4 32.2 0.00 0.00 0.00 15 1016.8
20260507015018 22 345 16.1 19.3 0.00 0.00 0.00 14 1016.6
20260507014514 22 342 11.3 20.9 0.00 0.00 0.00 15 1016.8
20260507014010 23 352 3.2 12.9 0.00 0.00 0.00 14 1016.8
20260507013507 23 19 8.0 14.5 0.00 0.00 0.00 14 1017.1
20260507013004 23 327 4.8 29.0 0.00 0.00 0.00 15 1016.8
20260507012500 23 356 12.9 27.4 0.00 0.00 0.00 14 1016.7
20260507011951 23 7 22.5 30.6 0.00 0.00 0.00 14 1016.3
20260507011448 23 303 4.8 20.9 0.00 0.00 0.00 14 1016.6
20260507010944 23 1 27.4 30.6 0.00 0.00 0.00 14 1016.6
20260507010439 23 325 16.1 32.2 0.00 0.00 0.00 13 1016.6
20260507005936 23 346 22.5 32.2 0.00 0.00 0.00 14 1016.6
20260507005433 23 315 19.3 24.1 0.00 0.00 0.00 13 1016.5
20260507004930 23 319 14.5 27.4 0.00 0.00 0.00 14 1016.6
20260507004427 23 316 29.0 29.0 0.00 0.00 0.00 14 1016.6
20260507003924 23 324 16.1 30.6 0.00 0.00 0.00 14 1016.4
20260507003419 23 349 20.9 37.0 0.00 0.00 0.00 14 1016.6
20260507002914 24 14 11.3 24.1 0.00 0.00 0.00 14 1016.7
20260507002411 23 323 17.7 33.8 0.00 0.00 0.00 15 1016.4
20260507001908 23 340 12.9 35.4 0.00 0.00 0.00 15 1016.4
20260507001405 23 346 20.9 45.1 0.00 0.00 0.00 15 1016.4
20260507000902 24 3 11.3 32.2 0.00 0.00 0.00 14 1016.2
20260507000357 24 0 22.5 37.0 0.00 0.00 0.00 14 1016.1
20260506235853 24 349 19.3 35.4 0.00 0.00 0.00 15 1016.1
20260506235350 23 315 38.6 41.8 0.00 0.00 0.00 15 1016.1
20260506234845 24 356 27.4 38.6 0.00 0.00 0.00 14 1016.1
20260506234344 24 325 20.9 32.2 0.00 0.00 0.00 15 1016.2
20260506233842 24 333 14.5 32.2 0.00 0.00 0.00 16 1016.2
20260506233337 25 23 4.8 29.0 0.00 0.00 0.00 17 1015.9
20260506232834 24 3 14.5 38.6 0.00 0.00 0.00 16 1016.1
20260506232330 25 331 24.1 30.6 0.00 0.00 0.00 16 1015.9
20260506231826 25 334 16.1 41.8 0.00 0.00 0.00 16 1016.1
20260506231324 24 340 19.3 32.2 0.00 0.00 0.00 16 1016.2
20260506230821 25 341 17.7 27.4 0.00 0.00 0.00 17 1016.1
20260506230318 25 24 8.0 33.8 0.00 0.00 0.00 16 1015.8
20260506225814 25 335 6.4 22.5 0.00 0.00 0.00 16 1016.1
20260506225312 24 358 29.0 49.9 0.00 0.00 0.00 16 1015.8
20260506224808 25 0 32.2 41.8 0.00 0.00 0.00 16 1016.1
20260506224306 25 357 24.1 38.6 0.00 0.00 0.00 16 1016.3
20260506223802 25 81 11.3 30.6 0.00 0.00 0.00 17 1015.8
20260506223258 25 308 14.5 32.2 0.00 0.00 0.00 17 1016.2
20260506222755 24 350 27.4 46.7 0.00 0.00 0.00 17 1016.2
20260506222250 24 311 14.5 41.8 0.00 0.00 0.00 17 1015.8
20260506221748 25 2 17.7 30.6 0.00 0.00 0.00 17 1016.1
20260506221246 26 358 16.1 30.6 0.00 0.00 0.00 17 1016.2
20260506220744 25 19 9.7 32.2 0.00 0.00 0.00 18 1016.3
20260506220238 25 315 11.3 24.1 0.00 0.00 0.00 18 1016.6
20260506215736 25 0 16.1 32.2 0.00 0.00 0.00 19 1016.5
20260506215231 25 353 25.7 35.4 0.00 0.00 0.00 18 1016.4
20260506214727 25 9 8.0 37.0 0.00 0.00 0.00 19 1016.6
20260506214225 24 21 24.1 37.0 0.00 0.00 0.00 20 1016.5
20260506213722 25 40 11.3 22.5 0.00 0.00 0.00 18 1016.6
20260506213219 24 353 16.1 30.6 0.00 0.00 0.00 20 1016.6
20260506212716 24 0 3.2 22.5 0.00 0.00 0.00 21 1016.6
20260506212211 24 355 17.7 40.2 0.00 0.00 0.00 21 1016.6
20260506211707 23 157 3.2 22.5 0.00 0.00 0.00 22 1016.7
20260506211204 24 308 17.7 38.6 0.00 0.00 0.00 21 1016.5
20260506210702 25 0 9.7 24.1 0.00 0.00 0.00 21 1016.3
20260506210158 24 328 9.7 20.9 0.00 0.00 0.00 23 1016.7
20260506205656 25 342 22.5 32.2 0.00 0.00 0.00 22 1016.7
20260506205155 25 326 9.7 16.1 0.00 0.00 0.00 21 1016.9
20260506204653 24 331 8.0 30.6 0.00 0.00 0.00 23 1016.7
20260506204150 25 17 12.9 37.0 0.00 0.00 0.00 21 1016.5
20260506203648 25 17 9.7 35.4 0.00 0.00 0.00 22 1016.6
20260506203145 24 278 3.2 25.7 0.00 0.00 0.00 23 1016.2
20260506202643 25 18 11.3 40.2 0.00 0.00 0.00 24 1016.5
20260506202139 25 155 4.8 17.7 0.00 0.00 0.00 22 1016.5
20260506201636 24 52 9.7 17.7 0.00 0.00 0.00 23 1016.6
20260506201132 24 347 9.7 9.7 0.00 0.00 0.00 24 1016.8
20260506200629 24 338 19.3 35.4 0.00 0.00 0.00 24 1016.7
20260506200126 24 0 1.6 12.9 0.00 0.00 0.00 25 1016.5
20260506195622 23 350 14.5 29.0 0.00 0.00 0.00 25 1016.6
20260506195119 24 319 3.2 24.1 0.00 0.00 0.00 25 1016.7
20260506194616 23 327 14.5 37.0 0.00 0.00 0.00 25 1016.8
20260506194113 23 300 11.3 33.8 0.00 0.00 0.00 26 1016.7
20260506193610 23 311 27.4 27.4 0.00 0.00 0.00 26 1017.1
20260506193108 23 5 8.0 24.1 0.00 0.00 0.00 26 1016.5
20260506192604 23 348 25.7 27.4 0.00 0.00 0.00 26 1016.8
20260506192100 23 330 14.5 25.7 0.00 0.00 0.00 26 1016.8
20260506191557 23 301 25.7 33.8 0.00 0.00 0.00 25 1016.8
20260506191053 23 237 8.0 14.5 0.00 0.00 0.00 26 1016.6
20260506190550 23 359 16.1 24.1 0.00 0.00 0.00 26 1016.7
20260506190047 24 35 0.0 14.5 0.00 0.00 0.00 26 1016.8
20260506185544 23 281 8.0 16.1 0.00 0.00 0.00 26 1017.2
20260506185041 22 295 3.2 22.5 0.00 0.00 0.00 27 1017.1
20260506184538 23 12 30.6 30.6 0.00 0.00 0.00 27 1017.1
20260506184035 23 350 8.0 19.3 0.00 0.00 0.00 28 1017.1
20260506183531 22 312 11.3 30.6 0.00 0.00 0.00 27 1016.7
20260506183028 22 266 8.0 16.1 0.00 0.00 0.00 27 1017.2
20260506182526 22 164 4.8 17.7 0.00 0.00 0.00 27 1017.2
20260506182022 21 282 11.3 20.9 0.00 0.00 0.00 28 1017.3
20260506181520 22 223 8.0 25.7 0.00 0.00 0.00 27 1017.1
20260506181017 22 244 4.8 8.0 0.00 0.00 0.00 28 1017.2
20260506180514 21 231 4.8 17.7 0.00 0.00 0.00 28 1016.8
20260506180010 21 297 3.2 17.7 0.00 0.00 0.00 28 1017.2
20260506175507 21 235 6.4 14.5 0.00 0.00 0.00 29 1017.1
20260506175003 21 191 6.4 19.3 0.00 0.00 0.00 29 1017.1
20260506174502 21 207 16.1 24.1 0.00 0.00 0.00 29 1017.2
20260506173957 21 244 14.5 20.9 0.00 0.00 0.00 29 1017.1
20260506173455 19 162 3.2 29.0 0.00 0.00 0.00 30 1017.1
20260506172952 20 206 1.6 9.7 0.00 0.00 0.00 31 1016.8
20260506172449 21 262 8.0 24.1 0.00 0.00 0.00 28 1016.8
20260506171945 21 203 9.7 19.3 0.00 0.00 0.00 29 1016.9
20260506171443 20 195 22.5 22.5 0.00 0.00 0.00 29 1016.9
20260506170941 20 223 14.5 20.9 0.00 0.00 0.00 29 1016.8
20260506170437 20 235 11.3 25.7 0.00 0.00 0.00 30 1016.8
20260506165936 20 187 4.8 20.9 0.00 0.00 0.00 29 1016.7
20260506165434 20 184 14.5 19.3 0.00 0.00 0.00 29 1016.9
20260506164930 19 175 8.0 17.7 0.00 0.00 0.00 29 1016.8
20260506164426 20 196 4.8 11.3 0.00 0.00 0.00 29 1016.7
20260506163919 20 245 11.3 17.7 0.00 0.00 0.00 29 1017.1
20260506163413 18 244 14.5 17.7 0.00 0.00 0.00 30 1017.2
20260506162908 18 225 9.7 17.7 0.00 0.00 0.00 30 1017.1
20260506162407 18 201 9.7 19.3 0.00 0.00 0.00 29 1017.1
20260506161904 18 208 8.0 16.1 0.00 0.00 0.00 30 1017.2
20260506161401 19 222 8.0 16.1 0.00 0.00 0.00 30 1017.2
20260506160853 18 237 14.5 17.7 0.00 0.00 0.00 30 1016.9
20260506160350 18 224 14.5 20.9 0.00 0.00 0.00 30 1016.7
20260506155848 17 192 6.4 14.5 0.00 0.00 0.00 31 1017.1
20260506155344 17 283 12.9 22.5 0.00 0.00 0.00 31 1017.2
20260506153456 17 214 9.7 20.9 0.00 0.00 0.00 32 1017.4
20260506152953 17 263 12.9 16.1 0.00 0.00 0.00 31 1017.4
20260506152450 17 255 4.8 19.3 0.00 0.00 0.00 32 1017.1
20260506151948 17 298 9.7 17.7 0.00 0.00 0.00 31 1017.1
20260506151445 17 234 9.7 14.5 0.00 0.00 0.00 31 1017.3
20260506150943 17 192 4.8 8.0 0.00 0.00 0.00 31 1016.9
20260506150438 17 286 0.0 6.4 0.00 0.00 0.00 31 1017.2
20260506145936 17 195 1.6 4.8 0.00 0.00 0.00 32 1016.9
20260506145432 17 294 3.2 4.8 0.00 0.00 0.00 32 1016.7
20260506144930 17 172 0.0 4.8 0.00 0.00 0.00 32 1017.1
20260506144426 18 90 1.6 3.2 0.00 0.00 0.00 31 1016.7
20260506143925 17 105 1.6 4.8 0.00 0.00 0.00 34 1016.9
20260506143421 17 83 1.6 4.8 0.00 0.00 0.00 33 1016.8
20260506142920 16 162 0.0 4.8 0.00 0.00 0.00 35 1016.7
20260506142417 15 106 0.0 3.2 0.00 0.00 0.00 37 1016.6
20260506141915 15 156 3.2 8.0 0.00 0.00 0.00 39 1016.8
20260506141413 15 127 3.2 6.4 0.00 0.00 0.00 36 1016.6
20260506140911 15 145 1.6 3.2 0.00 0.00 0.00 37 1016.8
20260506140408 14 105 0.0 3.2 0.00 0.00 0.00 38 1016.5
20260506135905 12 260 3.2 4.8 0.00 0.00 0.00 41 1016.5
20260506135402 11 203 0.0 1.6 0.00 0.00 0.00 44 1016.4
20260506134858 11 131 0.0 3.2 0.00 0.00 0.00 45 1016.3
20260506134354 10 175 3.2 3.2 0.00 0.00 0.00 45 1016.2
20260506133851 10 90 0.0 3.2 0.00 0.00 0.00 45 1016.1
20260506133348 10 111 1.6 3.2 0.00 0.00 0.00 46 1016.2
20260506132844 10 114 3.2 4.8 0.00 0.00 0.00 46 1016.1
20260506132342 10 132 3.2 4.8 0.00 0.00 0.00 46 1015.7
20260506131840 10 90 3.2 4.8 0.00 0.00 0.00 45 1016.1
20260506131336 10 90 3.2 3.2 0.00 0.00 0.00 47 1015.7
20260506130833 10 105 0.0 4.8 0.00 0.00 0.00 45 1015.3
20260506130329 8 87 4.8 4.8 0.00 0.00 0.00 49 1015.5
20260506125827 8 129 3.2 4.8 0.00 0.00 0.00 48 1015.5
20260506125325 8 29 0.0 0.0 0.00 0.00 0.00 48 1015.4
20260506124824 10 119 0.0 4.8 0.00 0.00 0.00 45 1015.4
20260506124320 9 172 0.0 4.8 0.00 0.00 0.00 45 1015.4
20260506123818 9 95 0.0 4.8 0.00 0.00 0.00 46 1015.1
20260506123316 10 10 3.2 3.2 0.00 0.00 0.00 45 1015.3
20260506122813 9 90 1.6 1.6 0.00 0.00 0.00 45 1014.9
20260506122310 8 32 1.6 4.8 0.00 0.00 0.00 47 1014.8
20260506121808 10 29 1.6 3.2 0.00 0.00 0.00 45 1014.6
20260506121304 10 101 4.8 6.4 0.00 0.00 0.00 43 1014.7
20260506120802 10 178 6.4 6.4 0.00 0.00 0.00 44 1014.7
20260506120300 10 69 0.0 3.2 0.00 0.00 0.00 44 1014.5
20260506115757 10 130 3.2 3.2 0.00 0.00 0.00 43 1014.6
20260506115255 11 90 0.0 4.8 0.00 0.00 0.00 42 1014.5
20260506114753 11 61 4.8 4.8 0.00 0.00 0.00 41 1014.4
20260506114250 11 90 4.8 8.0 0.00 0.00 0.00 40 1014.4
20260506113748 11 102 3.2 8.0 0.00 0.00 0.00 41 1014.5
20260506113246 11 97 6.4 6.4 0.00 0.00 0.00 41 1014.3
20260506112742 11 74 1.6 3.2 0.00 0.00 0.00 41 1014.3
20260506112240 11 90 0.0 3.2 0.00 0.00 0.00 41 1014.3
20260506111737 11 105 3.2 4.8 0.00 0.00 0.00 40 1014.0
20260506111235 12 12 3.2 4.8 0.00 0.00 0.00 39 1014.2
20260506110731 11 99 0.0 1.6 0.00 0.00 0.00 40 1014.3
20260506110229 12 54 0.0 3.2 0.00 0.00 0.00 39 1014.4
20260506105726 12 55 0.0 3.2 0.00 0.00 0.00 39 1014.0
20260506105223 12 0 0.0 4.8 0.00 0.00 0.00 38 1013.9
20260506104721 12 60 1.6 4.8 0.00 0.00 0.00 38 1013.9
20260506104218 12 348 3.2 4.8 0.00 0.00 0.00 38 1013.7
20260506103715 12 0 1.6 3.2 0.00 0.00 0.00 39 1014.0
20260506103212 12 81 0.0 3.2 0.00 0.00 0.00 39 1013.8
20260506102710 12 14 1.6 4.8 0.00 0.00 0.00 39 1013.5
20260506102208 12 34 3.2 3.2 0.00 0.00 0.00 39 1013.6
20260506101704 12 306 1.6 4.8 0.00 0.00 0.00 38 1013.6
20260506101200 12 15 0.0 3.2 0.00 0.00 0.00 38 1013.6
20260506100659 12 301 3.2 4.8 0.00 0.00 0.00 37 1013.7
20260506100156 12 292 0.0 4.8 0.00 0.00 0.00 37 1013.5
20260506095655 12 304 0.0 4.8 0.00 0.00 0.00 37 1013.5
20260506095151 12 345 1.6 6.4 0.00 0.00 0.00 37 1013.5
20260506094649 12 356 3.2 4.8 0.00 0.00 0.00 36 1013.4
20260506094146 12 14 0.0 1.6 0.00 0.00 0.00 36 1013.2
20260506093645 13 212 0.0 8.0 0.00 0.00 0.00 35 1013.3
20260506093142 13 244 4.8 8.0 0.00 0.00 0.00 34 1013.4
20260506092639 13 222 4.8 9.7 0.00 0.00 0.00 33 1013.2
20260506092136 13 235 4.8 9.7 0.00 0.00 0.00 33 1013.0
20260506091634 14 209 6.4 14.5 0.00 0.00 0.00 33 1013.2
20260506091132 13 192 4.8 11.3 0.00 0.00 0.00 34 1013.0
20260506090630 14 192 6.4 8.0 0.00 0.00 0.00 34 1013.4
20260506090125 15 185 4.8 11.3 0.00 0.00 0.00 33 1013.0
20260506085623 15 194 8.0 12.9 0.00 0.00 0.00 33 1013.5
20260506085119 15 206 8.0 12.9 0.00 0.00 0.00 33 1013.0
20260506084615 15 225 4.8 12.9 0.00 0.00 0.00 32 1012.9
20260506084112 15 223 8.0 8.0 0.00 0.00 0.00 33 1013.0
20260506083609 15 216 3.2 14.5 0.00 0.00 0.00 32 1012.8
20260506083107 15 228 8.0 11.3 0.00 0.00 0.00 32 1012.8
20260506082603 15 226 9.7 16.1 0.00 0.00 0.00 31 1012.7
20260506082059 15 220 3.2 11.3 0.00 0.00 0.00 31 1012.8
20260506081557 15 228 3.2 11.3 0.00 0.00 0.00 31 1013.0
20260506081054 15 227 4.8 9.7 0.00 0.00 0.00 32 1012.6
20260506080552 15 238 4.8 11.3 0.00 0.00 0.00 31 1012.8
20260506073032 15 237 4.8 6.4 0.00 0.00 0.00 29 1012.6
20260506072530 16 238 4.8 11.3 0.00 0.00 0.00 29 1012.6
20260506072027 15 234 4.8 9.7 0.00 0.00 0.00 29 1012.7
20260506071525 16 229 4.8 9.7 0.00 0.00 0.00 28 1012.7
20260506071022 16 255 3.2 11.3 0.00 0.00 0.00 28 1012.6
20260506070519 16 234 9.7 11.3 0.00 0.00 0.00 28 1012.5
20260506062457 17 196 4.8 11.3 0.00 0.00 0.00 26 1012.4
20260506061953 17 205 11.3 17.7 0.00 0.00 0.00 26 1012.3
20260506061449 17 195 6.4 19.3 0.00 0.00 0.00 26 1012.2
20260506060947 17 230 16.1 16.1 0.00 0.00 0.00 25 1012.3
20260506060445 17 232 11.3 14.5 0.00 0.00 0.00 25 1011.9
20260506050914 17 205 8.0 12.9 0.00 0.00 0.00 24 1011.4
20260506050412 17 227 11.3 19.3 0.00 0.00 0.00 24 1011.6
20260506044902 17 213 3.2 14.5 0.00 0.00 0.00 25 1011.5
20260506044400 17 216 8.0 11.3 0.00 0.00 0.00 25 1011.6
20260506043857 17 183 4.8 12.9 0.00 0.00 0.00 25 1011.7
20260506043354 17 218 6.4 12.9 0.00 0.00 0.00 25 1011.5
20260506042852 17 264 8.0 14.5 0.00 0.00 0.00 25 1011.5
20260506042351 17 246 6.4 14.5 0.00 0.00 0.00 25 1011.6
20260506041849 17 220 4.8 16.1 0.00 0.00 0.00 25 1011.3
20260506041346 17 214 14.5 16.1 0.00 0.00 0.00 24 1011.3
20260506040843 17 234 6.4 16.1 0.00 0.00 0.00 25 1011.0
20260506040340 17 220 8.0 16.1 0.00 0.00 0.00 25 1010.8
20260506035836 17 204 4.8 17.7 0.00 0.00 0.00 26 1011.0
20260506035334 17 200 4.8 16.1 0.00 0.00 0.00 26 1010.8
20260506034831 17 215 8.0 19.3 0.00 0.00 0.00 26 1010.7
20260506034328 17 211 11.3 19.3 0.00 0.00 0.00 26 1010.5
20260506033825 17 214 9.7 14.5 0.00 0.00 0.00 26 1010.7
20260506033322 17 245 11.3 14.5 0.00 0.00 0.00 26 1010.5
20260506032819 17 202 6.4 19.3 0.00 0.00 0.00 26 1010.4
20260506032316 17 218 8.0 16.1 0.00 0.00 0.00 27 1010.4
20260506031813 17 228 12.9 22.5 0.00 0.00 0.00 26 1010.0
20260506031310 17 216 9.7 16.1 0.00 0.00 0.00 27 1010.0
20260506030807 17 191 4.8 14.5 0.00 0.00 0.00 27 1010.2
20260506030305 17 214 4.8 19.3 0.00 0.00 0.00 26 1009.8
20260506025802 17 220 11.3 17.7 0.00 0.00 0.00 26 1009.7
20260506025258 17 221 6.4 17.7 0.00 0.00 0.00 26 1009.7
20260506024755 17 227 9.7 20.9 0.00 0.00 0.00 25 1009.5
20260506024252 17 227 9.7 20.9 0.00 0.00 0.00 25 1009.7
20260506023748 18 214 6.4 17.7 0.00 0.00 0.00 26 1009.5
20260506023245 18 202 11.3 20.9 0.00 0.00 0.00 26 1009.5
20260506022742 18 206 8.0 20.9 0.00 0.00 0.00 25 1009.3
20260506022240 18 228 8.0 25.7 0.00 0.00 0.00 25 1009.0
20260506021738 18 208 14.5 24.1 0.00 0.00 0.00 25 1008.9
20260506021234 18 222 9.7 17.7 0.00 0.00 0.00 25 1009.3
20260506020731 18 225 8.0 19.3 0.00 0.00 0.00 24 1008.9
20260506020229 18 178 6.4 19.3 0.00 0.00 0.00 24 1008.9